GW2349 Weather Reports


Display with metric or nautical units.
time (UTC)temp
F
wind
direction
speed
MPH
gust
MPH
rain 1hr
in
rain 24hr
in
rain mn
in
humidity
%
barometer
mb
20260831112042 58 265 2.0 7.0 0.00 0.19 0.03 87 1005.8
20260831111612 58 9 2.0 6.0 0.00 0.19 0.03 87 1005.8
20260831111041 58 299 1.0 6.0 0.00 0.19 0.03 87 1005.7
20260831110544 58 350 1.0 9.0 0.00 0.19 0.03 88 1005.7
20260831110134 58 278 2.0 9.0 0.00 0.19 0.03 88 1005.7
20260831105542 57 337 2.0 5.0 0.00 0.19 0.03 88 1005.7
20260831105044 57 310 1.0 10.0 0.00 0.19 0.03 88 1005.6
20260831104600 57 284 3.0 10.0 0.00 0.19 0.03 88 1005.6
20260831104046 57 5 1.0 8.0 0.00 0.19 0.03 88 1005.6
20260831103546 57 282 2.0 8.0 0.00 0.19 0.03 88 1005.6
20260831103101 57 267 3.0 8.0 0.00 0.19 0.03 88 1005.5
20260831102544 57 309 3.0 8.0 0.00 0.19 0.03 88 1005.6
20260831102049 57 5 2.0 6.0 0.00 0.19 0.03 89 1005.6
20260831101555 57 37 1.0 6.0 0.00 0.19 0.03 89 1005.7
20260831101044 57 312 1.0 4.0 0.00 0.19 0.03 89 1005.7
20260831100544 57 349 0.0 6.0 0.00 0.19 0.03 89 1005.6
20260831100104 56 329 2.0 6.0 0.00 0.19 0.03 89 1005.7
20260831095543 56 277 1.0 6.0 0.00 0.19 0.03 89 1005.6
20260831095043 56 321 1.0 6.0 0.00 0.19 0.03 89 1005.7
20260831094602 56 0 2.0 6.0 0.00 0.19 0.03 89 1005.6
20260831094047 56 352 1.0 5.0 0.00 0.19 0.03 89 1005.5
20260831093544 56 282 0.0 4.0 0.00 0.19 0.03 89 1005.5
20260831093103 56 352 0.0 5.0 0.00 0.19 0.03 89 1005.6
20260831092544 56 0 1.0 5.0 0.00 0.19 0.03 88 1005.6
20260831092045 56 347 0.0 5.0 0.00 0.19 0.03 89 1005.5
20260831091557 56 81 1.0 5.0 0.00 0.19 0.03 89 1005.5
20260831091044 56 284 1.0 3.0 0.00 0.19 0.03 89 1005.5
20260831090547 56 250 0.0 3.0 0.00 0.19 0.03 89 1005.5
20260831090054 56 0 0.0 3.0 0.00 0.19 0.03 89 1005.5
20260831085545 56 343 0.0 3.0 0.00 0.19 0.03 90 1005.6
20260831085045 56 0 1.0 3.0 0.00 0.19 0.03 90 1005.5
20260831084604 56 223 0.0 3.0 0.00 0.19 0.03 90 1005.5
20260831084046 56 0 0.0 3.0 0.00 0.19 0.03 90 1005.4
20260831083544 56 345 0.0 3.0 0.00 0.19 0.03 90 1005.5
20260831083105 56 5 0.0 3.0 0.00 0.19 0.03 90 1005.4
20260831082544 56 351 0.0 4.0 0.00 0.19 0.03 90 1005.3
20260831082046 56 0 0.0 4.0 0.00 0.19 0.03 90 1005.3
20260831081632 56 0 0.0 4.0 0.00 0.19 0.03 90 1005.3
20260831081045 55 360 1.0 4.0 0.00 0.19 0.03 90 1005.3
20260831080544 55 0 0.0 4.0 0.00 0.19 0.03 90 1005.4
20260831075545 55 0 1.0 4.0 0.00 0.22 0.03 90 1005.3
20260831075044 55 317 0.0 3.0 0.00 0.22 0.03 90 1005.2
20260831074602 55 317 1.0 3.0 0.00 0.22 0.03 90 1005.3
20260831074044 55 316 0.0 4.0 0.00 0.22 0.03 90 1005.2
20260831073542 55 352 1.0 4.0 0.00 0.22 0.03 90 1005.2
20260831073156 55 344 0.0 3.0 0.00 0.21 0.03 91 1005.1
20260831072541 55 0 0.0 0.0 0.00 0.21 0.03 91 1005.2
20260831072047 55 0 0.0 0.0 0.00 0.21 0.03 90 1005.1
20260831071553 55 0 0.0 0.0 0.00 0.21 0.03 90 1005.2
20260831071041 55 0 0.0 1.0 0.00 0.21 0.03 90 1005.1
20260831070545 55 0 0.0 1.0 0.00 0.21 0.03 90 1005.1
20260831070107 55 0 0.0 2.0 0.00 0.21 0.03 90 1005.2
20260831065542 55 0 0.0 4.0 0.00 0.21 0.03 90 1005.1
20260831065041 55 352 0.0 4.0 0.00 0.21 0.03 90 1005.1
20260831064607 55 5 1.0 4.0 0.00 0.21 0.03 91 1005.1
20260831064047 55 0 0.0 4.0 0.00 0.21 0.03 91 1005.1
20260831063541 55 35 1.0 4.0 0.00 0.21 0.03 91 1005.0
20260831063056 55 0 0.0 4.0 0.00 0.21 0.03 91 1005.0
20260831062541 55 0 0.0 5.0 0.00 0.21 0.03 91 1005.0
20260831062042 54 236 0.0 5.0 0.00 0.21 0.03 91 1004.9
20260831061554 54 236 0.0 3.0 0.00 0.21 0.03 91 1004.9
20260831061041 54 0 0.0 2.0 0.00 0.21 0.03 91 1004.8
20260831060541 54 0 0.0 2.0 0.00 0.21 0.03 91 1004.8
20260831060115 54 0 0.0 2.0 0.00 0.21 0.03 91 1004.8
20260831055541 54 0 0.0 3.0 0.00 0.21 0.03 91 1004.8
20260831055042 54 236 1.0 4.0 0.00 0.21 0.03 91 1004.8
20260831054559 54 197 0.0 4.0 0.00 0.21 0.03 91 1004.9
20260831054042 54 254 1.0 4.0 0.00 0.21 0.03 91 1004.8
20260831053542 54 0 0.0 3.0 0.00 0.21 0.03 91 1004.7
20260831053104 54 173 1.0 3.0 0.00 0.21 0.03 91 1004.7
20260831052540 54 0 0.0 2.0 0.00 0.21 0.03 91 1004.7
20260831052043 54 0 0.0 6.0 0.00 0.21 0.03 91 1004.7
20260831051559 54 169 2.0 6.0 0.00 0.21 0.03 91 1004.7
20260831051042 54 227 2.0 5.0 0.00 0.21 0.03 91 1004.6
20260831050544 54 299 1.0 4.0 0.00 0.21 0.03 91 1004.5
20260831050141 54 315 1.0 6.0 0.00 0.21 0.03 91 1004.6
20260831045542 54 315 2.0 6.0 0.00 0.21 0.03 91 1004.5
20260831045042 54 221 0.0 5.0 0.00 0.21 0.03 91 1004.6
20260831044605 54 247 1.0 4.0 0.00 0.21 0.03 91 1004.6
20260831044045 54 224 2.0 5.0 0.00 0.21 0.03 91 1004.5
20260831043541 54 248 1.0 5.0 0.00 0.21 0.03 92 1004.6
20260831043101 54 0 0.0 5.0 0.00 0.21 0.03 92 1004.5
20260831042542 54 234 0.0 5.0 0.00 0.21 0.03 92 1004.5
20260831042042 54 297 2.0 5.0 0.00 0.21 0.03 92 1004.5
20260831041555 54 0 1.0 7.0 0.00 0.21 0.03 92 1004.5
20260831041044 54 329 0.0 7.0 0.00 0.21 0.03 92 1004.5
20260831040542 54 279 2.0 6.0 0.00 0.21 0.03 92 1004.5
20260831040055 54 229 2.0 6.0 0.00 0.21 0.03 92 1004.4
20260831035542 54 254 3.0 5.0 0.00 0.21 0.03 92 1004.4
20260831035042 54 243 2.0 5.0 0.00 0.21 0.03 92 1004.4
20260831034600 54 225 2.0 5.0 0.00 0.21 0.03 92 1004.4
20260831034042 54 248 2.0 5.0 0.00 0.21 0.03 92 1004.3
20260831033544 54 276 2.0 4.0 0.00 0.21 0.03 92 1004.4
20260831033052 54 232 1.0 4.0 0.00 0.21 0.03 92 1004.2
20260831032540 54 266 2.0 4.0 0.00 0.21 0.03 92 1004.3
20260831032040 54 221 1.0 4.0 0.00 0.21 0.03 92 1004.2
20260831031601 54 0 1.0 5.0 0.00 0.21 0.03 92 1004.2
20260831031041 54 0 1.0 5.0 0.00 0.21 0.03 92 1004.2
20260831030542 54 230 2.0 6.0 0.01 0.21 0.03 92 1004.2
20260831030059 54 276 2.0 7.0 0.01 0.21 0.03 92 1004.2
20260831025541 54 290 1.0 7.0 0.01 0.21 0.03 92 1004.2
20260831025041 54 246 2.0 6.0 0.01 0.21 0.03 92 1004.1
20260831024554 54 244 3.0 6.0 0.01 0.21 0.03 91 1004.2
20260831024041 54 234 2.0 6.0 0.01 0.21 0.03 91 1004.1
20260831023542 54 232 3.0 6.0 0.01 0.21 0.03 91 1004.0
20260831023100 54 229 3.0 5.0 0.01 0.21 0.03 91 1004.0
20260831022547 54 225 2.0 7.0 0.01 0.21 0.03 91 1004.0
20260831022042 54 264 2.0 9.0 0.01 0.21 0.03 91 1004.0
20260831021558 54 243 3.0 9.0 0.01 0.21 0.03 91 1003.9
20260831021042 54 233 3.0 7.0 0.00 0.20 0.02 91 1003.9
20260831020544 54 283 2.0 7.0 0.00 0.19 0.01 91 1004.0
20260831020055 54 272 2.0 8.0 0.00 0.19 0.01 91 1004.0
20260831015542 54 249 2.0 8.0 0.00 0.20 0.01 91 1003.9
20260831015041 54 294 1.0 5.0 0.00 0.20 0.01 91 1003.9
20260831014553 54 275 3.0 5.0 0.00 0.20 0.01 91 1003.8
20260831014041 54 260 1.0 4.0 0.00 0.20 0.01 91 1003.8
20260831013541 54 0 2.0 7.0 0.00 0.20 0.01 91 1003.8
20260831013100 54 14 2.0 7.0 0.00 0.20 0.01 91 1003.7
20260831012542 54 298 2.0 8.0 0.00 0.20 0.01 91 1003.7
20260831012041 54 257 1.0 8.0 0.00 0.20 0.01 91 1003.7
20260831011552 54 232 1.0 5.0 0.00 0.20 0.01 91 1003.6
20260831011043 54 246 2.0 6.0 0.00 0.20 0.01 91 1003.6
20260831010543 54 252 3.0 7.0 0.00 0.20 0.01 91 1003.6
20260831010104 54 264 3.0 7.0 0.00 0.20 0.01 91 1003.6
20260831005543 54 225 3.0 7.0 0.00 0.21 0.01 91 1003.6
20260831005043 54 242 3.0 8.0 0.00 0.21 0.01 91 1003.6
20260831004558 55 280 2.0 8.0 0.00 0.20 0.00 91 1003.6
20260831004044 55 235 3.0 7.0 0.00 0.20 0.00 91 1003.5
20260831003545 55 234 2.0 8.0 0.00 0.20 0.00 91 1003.5
20260831003055 55 245 3.0 8.0 0.00 0.20 0.00 91 1003.5
20260831002543 55 248 2.0 7.0 0.00 0.20 0.00 91 1003.4
20260831002043 55 297 3.0 7.0 0.00 0.20 0.00 91 1003.5
20260831001604 55 284 2.0 6.0 0.00 0.20 0.00 91 1003.4
20260831001043 55 229 2.0 7.0 0.00 0.20 0.00 91 1003.5
20260831000543 55 225 2.0 7.0 0.00 0.20 0.00 91 1003.4
20260831000104 55 239 2.0 7.0 0.00 0.20 0.00 91 1003.4
20260830235543 55 255 2.0 7.0 0.00 0.20 0.00 91 1003.4
20260830235043 55 260 2.0 6.0 0.00 0.20 0.00 91 1003.4
20260830234601 55 329 1.0 6.0 0.00 0.20 0.00 91 1003.4
20260830234043 55 261 2.0 6.0 0.00 0.20 0.00 91 1003.3
20260830233542 55 234 2.0 6.0 0.00 0.20 0.00 91 1003.3
20260830233108 55 250 2.0 6.0 0.00 0.20 0.00 91 1003.4
20260830232543 55 249 2.0 8.0 0.00 0.20 0.00 91 1003.3
20260830232043 55 242 3.0 8.0 0.00 0.20 0.00 91 1003.2
20260830231603 55 230 3.0 8.0 0.00 0.20 0.00 91 1003.3
20260830231044 55 239 3.0 7.0 0.00 0.20 0.00 91 1003.2
20260830230542 55 273 3.0 9.0 0.00 0.20 0.00 91 1003.2
20260830230100 55 245 3.0 9.0 0.00 0.20 0.00 91 1003.1
20260830225546 55 258 2.0 7.0 0.00 0.20 0.00 91 1003.1
20260830225044 55 238 2.0 6.0 0.00 0.20 0.00 91 1003.1
20260830224553 55 0 2.0 6.0 0.00 0.20 0.00 91 1003.1
20260830224044 55 250 1.0 6.0 0.00 0.20 0.00 91 1003.1
20260830223544 55 244 2.0 7.0 0.00 0.20 0.00 91 1003.1
20260830223102 55 246 2.0 7.0 0.00 0.20 0.00 91 1003.1
20260830222543 55 243 2.0 6.0 0.00 0.20 0.00 91 1003.1
20260830222043 55 241 2.0 5.0 0.00 0.20 0.00 91 1003.1
20260830221603 55 305 1.0 4.0 0.00 0.20 0.00 91 1003.0
20260830221043 55 260 1.0 4.0 0.00 0.19 0.00 91 1003.0
20260830220545 55 0 0.0 6.0 0.00 0.19 0.00 91 1002.9
20260830220105 55 228 2.0 6.0 0.00 0.19 0.00 91 1003.0
20260830215544 55 265 2.0 6.0 0.00 0.19 0.19 92 1002.9
20260830215044 55 238 2.0 6.0 0.00 0.19 0.19 91 1002.9
20260830214604 55 223 2.0 8.0 0.01 0.19 0.19 91 1002.9
20260830214042 55 252 2.0 8.0 0.01 0.19 0.19 91 1002.8
20260830213543 55 244 3.0 7.0 0.01 0.19 0.19 91 1002.8
20260830213056 55 191 3.0 7.0 0.01 0.19 0.19 91 1002.8
20260830212547 55 279 2.0 6.0 0.01 0.19 0.19 92 1002.8
20260830212042 55 239 1.0 7.0 0.01 0.19 0.19 91 1002.7
20260830211555 55 0 2.0 7.0 0.02 0.19 0.19 91 1002.7
20260830211044 55 221 3.0 7.0 0.02 0.19 0.19 91 1002.6
20260830210544 55 232 3.0 7.0 0.02 0.18 0.18 91 1002.7
20260830210107 55 247 2.0 6.0 0.03 0.18 0.18 91 1002.7
20260830205543 55 261 2.0 5.0 0.05 0.18 0.18 91 1002.6
20260830205043 55 190 0.0 4.0 0.05 0.18 0.18 91 1002.6
20260830204618 55 155 0.0 9.0 0.05 0.18 0.18 91 1002.6
20260830204043 55 209 1.0 9.0 0.05 0.18 0.18 91 1002.6
20260830203543 55 260 2.0 7.0 0.05 0.18 0.18 91 1002.6
20260830203107 55 262 2.0 7.0 0.05 0.18 0.18 91 1002.6
20260830202546 55 219 2.0 4.0 0.05 0.18 0.18 91 1002.6
20260830202043 55 0 0.0 9.0 0.05 0.18 0.18 91 1002.5
20260830201630 55 187 0.0 9.0 0.04 0.17 0.17 91 1002.4
20260830201045 55 279 3.0 10.0 0.05 0.17 0.17 91 1002.4
20260830200545 55 264 4.0 10.0 0.04 0.16 0.16 91 1002.4
20260830195543 55 216 3.0 8.0 0.01 0.13 0.13 91 1002.3
20260830195043 55 229 3.0 8.0 0.01 0.13 0.13 91 1002.3
20260830194602 55 228 2.0 9.0 0.00 0.12 0.12 90 1002.2
20260830194046 55 290 2.0 9.0 0.00 0.12 0.12 90 1002.3
20260830193546 55 272 2.0 9.0 0.00 0.12 0.12 90 1002.2
20260830193058 55 256 3.0 9.0 0.00 0.12 0.12 90 1002.2
20260830192543 55 261 4.0 8.0 0.00 0.12 0.12 90 1002.2
20260830192043 55 0 4.0 8.0 0.00 0.12 0.12 90 1002.1
20260830191628 55 240 2.0 8.0 0.00 0.12 0.12 90 1002.1
20260830191043 55 227 3.0 8.0 0.00 0.11 0.11 90 1002.0
20260830190543 56 277 2.0 8.0 0.00 0.11 0.11 89 1002.0
20260830190113 56 208 3.0 8.0 0.00 0.11 0.11 90 1001.9
20260830185546 56 235 2.0 7.0 0.00 0.11 0.11 89 1002.0
20260830185043 56 207 3.0 7.0 0.00 0.11 0.11 89 1001.9
20260830184604 56 201 2.0 7.0 0.00 0.11 0.11 89 1001.9
20260830184045 56 293 0.0 7.0 0.00 0.11 0.11 89 1001.9
20260830183543 56 264 2.0 9.0 0.00 0.11 0.11 89 1001.9
20260830183056 56 258 2.0 9.0 0.00 0.11 0.11 89 1001.8
20260830182544 56 224 4.0 10.0 0.00 0.11 0.11 89 1001.8
20260830182043 56 167 3.0 10.0 0.00 0.11 0.11 89 1001.8
20260830181554 56 360 2.0 10.0 0.00 0.11 0.11 89 1001.8
20260830181044 56 251 2.0 9.0 0.00 0.11 0.11 89 1001.8
20260830180545 56 252 3.0 9.0 0.00 0.11 0.11 89 1001.7
20260830180108 56 280 3.0 9.0 0.00 0.11 0.11 89 1001.7
20260830175543 56 255 4.0 9.0 0.00 0.12 0.11 89 1001.7
20260830175043 56 287 3.0 10.0 0.00 0.12 0.11 89 1001.6
20260830174601 56 236 3.0 10.0 0.00 0.12 0.11 89 1001.6
20260830174043 56 274 5.0 10.0 0.00 0.12 0.11 88 1001.5
20260830173542 56 185 3.0 11.0 0.00 0.12 0.11 88 1001.5
20260830173055 56 252 4.0 11.0 0.00 0.12 0.11 88 1001.5
20260830172545 56 253 5.0 11.0 0.00 0.12 0.11 88 1001.5
20260830172042 56 280 3.0 9.0 0.00 0.12 0.11 88 1001.5
20260830171553 56 240 4.0 10.0 0.00 0.12 0.11 88 1001.5
20260830171042 56 248 5.0 10.0 0.00 0.12 0.11 88 1001.5
20260830170542 56 255 5.0 10.0 0.00 0.12 0.11 88 1001.3
20260830165543 56 275 3.0 9.0 0.00 0.12 0.11 88 1001.3
20260830165042 56 153 4.0 12.0 0.00 0.12 0.11 88 1001.2
20260830164553 56 281 5.0 12.0 0.00 0.12 0.11 88 1001.2
20260830164043 56 215 3.0 11.0 0.00 0.12 0.11 88 1001.1
20260830163543 56 285 5.0 13.0 0.00 0.12 0.11 87 1001.1
20260830163101 56 275 6.0 13.0 0.00 0.12 0.11 87 1001.1
20260830162542 56 223 5.0 9.0 0.00 0.12 0.11 86 1001.1
20260830162045 57 287 3.0 7.0 0.00 0.12 0.11 86 1001.2
20260830161605 57 230 2.0 7.0 0.00 0.12 0.11 86 1001.1
20260830161044 57 243 3.0 7.0 0.00 0.12 0.11 86 1001.1
20260830160542 57 221 4.0 7.0 0.00 0.12 0.11 86 1001.1
20260830160057 57 217 2.0 4.0 0.00 0.12 0.11 86 1001.1
20260830155542 57 0 0.0 3.0 0.00 0.14 0.11 86 1001.1
20260830155043 57 0 0.0 4.0 0.00 0.14 0.11 86 1001.1
20260830154609 57 0 0.0 4.0 0.00 0.14 0.11 86 1001.1
20260830154043 57 207 1.0 6.0 0.00 0.14 0.11 86 1001.1
20260830153542 57 285 2.0 7.0 0.00 0.14 0.11 86 1001.2
20260830153103 57 261 1.0 7.0 0.00 0.14 0.11 86 1001.2
20260830152544 57 280 1.0 7.0 0.00 0.14 0.11 86 1001.1
20260830152043 57 190 3.0 7.0 0.00 0.14 0.11 86 1001.1
20260830151556 57 265 2.0 7.0 0.00 0.14 0.11 86 1001.1
20260830151043 57 281 2.0 6.0 0.00 0.14 0.11 86 1001.0
20260830150543 57 225 2.0 8.0 0.00 0.14 0.11 86 1000.9
20260830150106 57 263 3.0 8.0 0.00 0.14 0.11 86 1001.0
20260830145542 57 247 2.0 7.0 0.00 0.25 0.11 86 1001.0
20260830145044 57 254 2.0 8.0 0.00 0.25 0.11 86 1001.0
20260830144606 57 259 2.0 9.0 0.00 0.25 0.11 86 1001.0
20260830144042 57 248 3.0 9.0 0.00 0.25 0.11 87 1001.0
20260830143543 57 244 2.0 7.0 0.00 0.25 0.11 87 1001.0
20260830143100 56 248 2.0 6.0 0.00 0.25 0.11 87 1000.9
20260830142543 56 231 1.0 6.0 0.00 0.25 0.11 87 1000.9
20260830142044 56 320 2.0 5.0 0.00 0.25 0.11 87 1000.8
20260830141555 56 273 2.0 5.0 0.00 0.25 0.11 87 1000.8
20260830141042 56 217 1.0 8.0 0.00 0.25 0.11 87 1000.8
20260830140542 56 217 2.0 8.0 0.00 0.25 0.11 87 1000.8
20260830135543 56 251 2.0 9.0 0.00 0.28 0.11 87 1000.6
20260830135043 56 223 3.0 9.0 0.00 0.28 0.11 87 1000.6
20260830134559 56 238 2.0 11.0 0.00 0.28 0.11 87 1000.6
20260830134043 56 229 4.0 11.0 0.00 0.28 0.11 87 1000.6
20260830133542 56 338 4.0 11.0 0.00 0.28 0.11 87 1000.5
20260830133102 56 294 3.0 10.0 0.00 0.28 0.11 87 1000.5
20260830132543 56 223 5.0 10.0 0.00 0.28 0.11 87 1000.5
20260830132045 56 293 3.0 8.0 0.00 0.28 0.11 88 1000.5
20260830131603 56 352 2.0 10.0 0.00 0.28 0.11 88 1000.5
20260830131042 56 240 4.0 10.0 0.01 0.28 0.11 88 1000.5
20260830130543 55 257 2.0 9.0 0.03 0.28 0.11 88 1000.4
20260830130117 55 244 3.0 8.0 0.04 0.28 0.11 88 1000.3
20260830125542 55 9 3.0 9.0 0.05 0.28 0.11 88 1000.4
20260830125042 55 276 4.0 10.0 0.05 0.28 0.11 88 1000.4
20260830124558 55 257 6.0 10.0 0.05 0.28 0.11 88 1000.4
20260830124042 55 246 4.0 11.0 0.05 0.28 0.11 88 1000.4
20260830123543 55 257 4.0 11.0 0.05 0.28 0.11 88 1000.4
20260830123100 55 267 3.0 10.0 0.06 0.28 0.11 88 1000.4
20260830122543 55 232 2.0 10.0 0.06 0.28 0.11 87 1000.5
20260830122043 55 281 3.0 9.0 0.05 0.27 0.11 87 1000.4
20260830121605 55 232 2.0 8.0 0.06 0.27 0.11 87 1000.5
20260830121043 55 269 2.0 7.0 0.04 0.25 0.09 87 1000.5
20260830120543 55 234 2.0 7.0 0.03 0.25 0.08 87 1000.5
20260830120118 55 250 2.0 6.0 0.03 0.23 0.07 87 1000.5
20260830115543 55 240 2.0 5.0 0.02 0.22 0.06 87 1000.6
20260830115043 55 236 2.0 8.0 0.02 0.22 0.06 87 1000.5
20260830114555 55 231 3.0 8.0 0.02 0.22 0.06 87 1000.5
20260830114042 55 290 2.0 8.0 0.02 0.22 0.06 87 1000.6
20260830113542 55 345 0.0 6.0 0.01 0.22 0.05 88 1000.6
20260830113052 55 257 0.0 7.0 0.01 0.22 0.05 88 1000.6
20260830112542 55 301 0.0 7.0 0.01 0.22 0.05 87 1000.5